Zurück zum Katalog

STARLINK-2107

AktivKommunikationVLEO
NORAD 47723·PAYLOAD·🇺🇸 United States

Gestartet Mar 4, 2021 von Cape Canaveral Space Force Station

Loading…

Nächste Überflüge (nächste 24 Stunden)

TLE

AktuellSource: CelesTrak SupGP

Epoche: Sep 15, 2026, 01:06 UTC

1 47723C 21017B   26258.04631944  .00066832  00000+0  17652-2 0  2583
2 47723  53.1605 324.2036 0003076  30.1340 353.5711 15.37840022    10

Verfolge STARLINK-2107 in Echtzeit mit AllMySat

Download on the App Store